This is the latest recevied weather packets stored in our database for station/object N4HAC. If no packets are shown the sender has not sent any weather packets the latest 10 day(s).
| Time | Temp. | Humidity | Pressure | Rain* | Wind** | Luminosity | Snow |
|---|---|---|---|---|---|---|---|
| 1777953139 | 13.89° C | 79% | 1005.6 hPa | 0 mm | - | 0 W/m² | - |
| 1777952836 | 13.89° C | 79% | 1005.5 hPa | 0 mm | - | 0 W/m² | - |
| 1777952532 | 13.89° C | 79% | 1005.6 hPa | 0 mm | - | 0 W/m² | - |
| 1777952228 | 14.44° C | 76% | 1005.7 hPa | 0 mm | - | 0 W/m² | - |
| 1777951927 | 15° C | 74% | 1005.7 hPa | 0 mm | - | 0 W/m² | - |
| 1777951625 | 15° C | 74% | 1005.7 hPa | 0 mm | - | 0 W/m² | - |
| 1777951320 | 15° C | 74% | 1005.8 hPa | 0 mm | - | 0 W/m² | - |
| 1777951018 | 14.44° C | 75% | 1005.6 hPa | 0 mm | - | 0 W/m² | - |
| 1777950714 | 15° C | 74% | 1006 hPa | 0 mm | - | 0 W/m² | - |
| 1777950411 | 15.56° C | 71% | 1005.8 hPa | 0 mm | - | 0 W/m² | - |
| 1777950107 | 16.11° C | 70% | 1005.6 hPa | 0 mm | - | 0 W/m² | - |
| 1777949803 | 16.11° C | 68% | 1005.7 hPa | 0 mm | - | 0 W/m² | - |
| 1777949502 | 16.67° C | 67% | 1005.7 hPa | 0 mm | - | 0 W/m² | - |
| 1777949199 | 16.67° C | 67% | 1005.7 hPa | 0 mm | - | 0 W/m² | - |
| 1777948896 | 16.67° C | 66% | 1005.8 hPa | 0 mm | - | 0 W/m² | - |
| 1777948593 | 17.22° C | 65% | 1005.9 hPa | 0 mm | - | 0 W/m² | - |
| 1777948291 | 16.67° C | 66% | 1005.8 hPa | 0 mm | - | 0 W/m² | - |
| 1777947988 | 16.67° C | 65% | 1005.6 hPa | 0 mm | - | 0 W/m² | - |
| 1777947685 | 17.22° C | 65% | 1005.6 hPa | 0 mm | - | 0 W/m² | - |
| 1777947381 | 17.22° C | 64% | 1005.8 hPa | 0 mm | - | 0 W/m² | - |
| 1777947078 | 17.22° C | 64% | 1005.7 hPa | 0 mm | - | 0 W/m² | - |
| 1777946774 | 17.78° C | 63% | 1005.7 hPa | 0 mm | - | 0 W/m² | - |
| 1777946470 | 17.78° C | 62% | 1005.8 hPa | 0 mm | - | 0 W/m² | - |
| 1777946167 | 17.78° C | 62% | 1005.7 hPa | 0 mm | - | 0 W/m² | - |
| 1777945864 | 17.22° C | 63% | 1005.7 hPa | 0 mm | - | 0 W/m² | - |
* Rain latest hour (hover to see other rain measurements)
** Current wind speed in m/s (hover to see current wind gust speed)